| time (UTC) | temp F | wind direction | speed MPH | gust MPH | rain 1hr in | rain 24hr in | rain mn in | humidity % | barometer mb |
| 20260504081516 | 43 | 121 | 0.0 | 0.0 | 0.00 | 0.00 | 0.00 | 82 | 1014.4 |
| 20260504050104 | 45 | 220 | 0.0 | 0.0 | 0.00 | 0.00 | 0.00 | 68 | 1014.4 |
| 20260504044604 | 44 | 221 | 0.0 | 1.0 | 0.00 | 0.00 | 0.00 | 70 | 1014.4 |
| 20260504043056 | 44 | 169 | 0.0 | 0.0 | 0.00 | 0.00 | 0.00 | 72 | 1014.2 |
| 20260504041554 | 44 | 179 | 0.0 | 2.0 | 0.00 | 0.00 | 0.00 | 72 | 1014.1 |
| 20260504040052 | 44 | 192 | 0.0 | 0.0 | 0.00 | 0.00 | 0.00 | 72 | 1014.0 |
| 20260504034557 | 44 | 199 | 0.0 | 3.0 | 0.00 | 0.00 | 0.00 | 71 | 1013.9 |
| 20260504033056 | 44 | 165 | 0.0 | 0.0 | 0.00 | 0.00 | 0.00 | 72 | 1013.9 |
| 20260504031552 | 44 | 166 | 0.0 | 0.0 | 0.00 | 0.00 | 0.00 | 71 | 1013.7 |
| 20260504030051 | 44 | 166 | 0.0 | 0.0 | 0.00 | 0.00 | 0.00 | 71 | 1013.7 |
| 20260504024550 | 45 | 166 | 0.0 | 0.0 | 0.00 | 0.00 | 0.00 | 70 | 1013.7 |
| 20260504023050 | 46 | 166 | 0.0 | 0.0 | 0.00 | 0.00 | 0.00 | 68 | 1013.8 |
| 20260504021549 | 46 | 166 | 0.0 | 0.0 | 0.00 | 0.00 | 0.00 | 66 | 1013.8 |
| 20260504020049 | 47 | 157 | 0.0 | 0.0 | 0.00 | 0.00 | 0.00 | 65 | 1013.8 |
| 20260504014549 | 47 | 157 | 0.0 | 0.0 | 0.00 | 0.00 | 0.00 | 64 | 1013.7 |
| 20260504013050 | 48 | 157 | 0.0 | 0.0 | 0.00 | 0.00 | 0.00 | 62 | 1013.6 |
| 20260504011549 | 49 | 224 | 0.0 | 0.0 | 0.00 | 0.00 | 0.00 | 61 | 1013.4 |
| 20260504010054 | 49 | 225 | 0.0 | 0.0 | 0.00 | 0.00 | 0.00 | 60 | 1013.4 |
| 20260504004546 | 50 | 223 | 0.0 | 0.0 | 0.00 | 0.00 | 0.00 | 59 | 1013.3 |
| 20260504003046 | 51 | 219 | 0.0 | 0.0 | 0.00 | 0.00 | 0.00 | 55 | 1013.0 |
| 20260504001605 | 52 | 219 | 0.0 | 0.0 | 0.00 | 0.00 | 0.00 | 54 | 1012.6 |
| 20260504000048 | 54 | 219 | 0.0 | 0.0 | 0.00 | 0.00 | 0.00 | 50 | 1012.5 |
| 20260503234544 | 56 | 297 | 0.0 | 8.0 | 0.00 | 0.00 | 0.00 | 46 | 1012.6 |
| 20260503233043 | 57 | 274 | 0.0 | 10.0 | 0.00 | 0.00 | 0.00 | 46 | 1012.4 |
| 20260503231543 | 57 | 293 | 0.0 | 6.0 | 0.00 | 0.00 | 0.00 | 43 | 1012.3 |
| 20260503230043 | 58 | 252 | 0.0 | 9.0 | 0.00 | 0.00 | 0.00 | 44 | 1012.3 |
| 20260503224542 | 58 | 171 | 1.0 | 12.0 | 0.00 | 0.00 | 0.00 | 40 | 1012.3 |
| 20260503223043 | 58 | 268 | 4.0 | 13.0 | 0.00 | 0.00 | 0.00 | 41 | 1012.2 |
| 20260503221544 | 59 | 307 | 3.0 | 13.0 | 0.00 | 0.00 | 0.00 | 39 | 1012.3 |
| 20260503220100 | 59 | 226 | 3.0 | 14.0 | 0.00 | 0.00 | 0.00 | 39 | 1012.3 |
| 20260503214539 | 59 | 266 | 4.0 | 13.0 | 0.00 | 0.00 | 0.00 | 42 | 1012.3 |
| 20260503213041 | 60 | 304 | 4.0 | 11.0 | 0.00 | 0.00 | 0.00 | 39 | 1012.2 |
| 20260503211555 | 60 | 170 | 1.0 | 18.0 | 0.00 | 0.00 | 0.00 | 39 | 1012.2 |
| 20260503210037 | 60 | 304 | 2.0 | 19.0 | 0.00 | 0.00 | 0.00 | 40 | 1012.0 |
| 20260503204537 | 60 | 223 | 0.0 | 13.0 | 0.00 | 0.00 | 0.00 | 41 | 1012.1 |
| 20260503203036 | 59 | 290 | 4.0 | 17.0 | 0.00 | 0.00 | 0.00 | 39 | 1012.4 |
| 20260503201534 | 59 | 279 | 4.0 | 14.0 | 0.00 | 0.00 | 0.00 | 42 | 1012.6 |
| 20260503200134 | 59 | 297 | 5.0 | 21.0 | 0.00 | 0.00 | 0.00 | 43 | 1012.7 |
| 20260503194532 | 59 | 284 | 4.0 | 14.0 | 0.00 | 0.00 | 0.00 | 42 | 1012.6 |
| 20260503193033 | 59 | 254 | 2.0 | 14.0 | 0.00 | 0.00 | 0.00 | 43 | 1012.8 |
| 20260503191528 | 58 | 285 | 3.0 | 15.0 | 0.00 | 0.00 | 0.00 | 47 | 1012.9 |
| 20260503190035 | 59 | 250 | 4.0 | 14.0 | 0.00 | 0.00 | 0.00 | 44 | 1013.0 |
| 20260503184528 | 58 | 227 | 6.0 | 16.0 | 0.00 | 0.00 | 0.00 | 42 | 1013.1 |
| 20260503183035 | 58 | 247 | 5.0 | 17.0 | 0.00 | 0.00 | 0.00 | 40 | 1013.1 |
| 20260503181540 | 56 | 229 | 4.0 | 18.0 | 0.00 | 0.00 | 0.00 | 49 | 1013.3 |
| 20260503180023 | 57 | 255 | 3.0 | 20.0 | 0.00 | 0.00 | 0.00 | 44 | 1013.3 |
| 20260503174521 | 56 | 300 | 1.0 | 16.0 | 0.00 | 0.00 | 0.00 | 47 | 1013.3 |
| 20260503173039 | 57 | 115 | 1.0 | 12.0 | 0.00 | 0.00 | 0.00 | 45 | 1013.4 |
| 20260503171518 | 55 | 217 | 4.0 | 15.0 | 0.00 | 0.00 | 0.00 | 46 | 1013.4 |